| time (UTC) | temp F | wind direction | speed MPH | gust MPH | rain 1hr in | rain 24hr in | rain mn in | humidity % | barometer mb |
| 20260509041104 | 56 | 337 | 5.0 | 5.0 | 0.00 | 0.00 | 0.00 | 43 | 1009.2 |
| 20260509040904 | 56 | 337 | 4.0 | 5.0 | 0.00 | 0.00 | 0.00 | 42 | 1009.3 |
| 20260509040702 | 56 | 337 | 3.0 | 5.0 | 0.00 | 0.00 | 0.00 | 43 | 1009.3 |
| 20260509040555 | 56 | 337 | 4.0 | 5.0 | 0.00 | 0.00 | 0.00 | 43 | 1009.3 |
| 20260509040459 | 56 | 337 | 4.0 | 5.0 | 0.00 | 0.00 | 0.00 | 43 | 1009.3 |
| 20260509035856 | 56 | 337 | 4.0 | 4.0 | 0.00 | 0.00 | 0.00 | 42 | 1009.2 |
| 20260509035249 | 56 | 337 | 0.0 | 2.0 | 0.00 | 0.00 | 0.00 | 41 | 1009.2 |
| 20260509035041 | 56 | 315 | 0.0 | 2.0 | 0.00 | 0.00 | 0.00 | 41 | 1009.2 |
| 20260509034639 | 56 | 337 | 3.0 | 4.0 | 0.00 | 0.00 | 0.00 | 40 | 1009.2 |
| 20260509033226 | 56 | 315 | 3.0 | 124.0 | 0.00 | 0.00 | 0.00 | 45 | 1009.4 |
| 20260509032919 | 56 | 315 | 124.0 | 124.0 | 0.00 | 0.00 | 0.00 | 41 | 1009.5 |
| 20260509032733 | 56 | 292 | 1.0 | 3.0 | 0.00 | 0.00 | 0.00 | 41 | 1009.5 |
| 20260509032529 | 56 | 0 | 3.0 | 4.0 | 0.00 | 0.00 | 0.00 | 41 | 1009.5 |
| 20260509031924 | 56 | 0 | 3.0 | 4.0 | 0.00 | 0.00 | 0.00 | 41 | 1009.4 |
| 20260509031721 | 56 | 0 | 3.0 | 4.0 | 0.00 | 0.00 | 0.00 | 42 | 1009.5 |
| 20260509031518 | 56 | 0 | 3.0 | 3.0 | 0.00 | 0.00 | 0.00 | 42 | 1009.6 |
| 20260509030711 | 56 | 337 | 0.0 | 2.0 | 0.00 | 0.00 | 0.00 | 42 | 1009.5 |
| 20260509030558 | 56 | 0 | 1.0 | 2.0 | 0.00 | 0.00 | 0.00 | 42 | 1009.4 |
| 20260509030506 | 56 | 0 | 1.0 | 2.0 | 0.00 | 0.00 | 0.00 | 42 | 1009.4 |
| 20260509025902 | 56 | 225 | 1.0 | 3.0 | 0.00 | 0.00 | 0.00 | 44 | 1009.6 |
| 20260509025456 | 56 | 236 | 2.0 | 3.0 | 0.00 | 0.00 | 0.00 | 44 | 1009.6 |
| 20260509025051 | 56 | 247 | 0.0 | 2.0 | 0.00 | 0.00 | 0.00 | 43 | 1009.5 |
| 20260509024850 | 56 | 247 | 1.0 | 4.0 | 0.00 | 0.00 | 0.00 | 43 | 1009.5 |
| 20260509022539 | 56 | 236 | 1.0 | 1.0 | 0.00 | 0.00 | 0.00 | 44 | 1009.5 |
| 20260509022334 | 56 | 236 | 1.0 | 1.0 | 0.00 | 0.00 | 0.00 | 44 | 1009.4 |
| 20260509021749 | 56 | 225 | 0.0 | 2.0 | 0.00 | 0.00 | 0.00 | 45 | 1009.4 |
| 20260509021347 | 56 | 292 | 1.0 | 1.0 | 0.00 | 0.00 | 0.00 | 45 | 1009.4 |
| 20260509020945 | 56 | 225 | 0.0 | 0.0 | 0.00 | 0.00 | 0.00 | 45 | 1009.6 |
| 20260509020740 | 56 | 225 | 0.0 | 1.0 | 0.00 | 0.00 | 0.00 | 45 | 1009.6 |
| 20260509020124 | 56 | 225 | 2.0 | 3.0 | 0.00 | 0.00 | 0.00 | 45 | 1009.7 |
| 20260509015516 | 56 | 225 | 0.0 | 3.0 | 0.00 | 0.00 | 0.00 | 45 | 1009.7 |
| 20260509014912 | 57 | 292 | 1.0 | 1.0 | 0.00 | 0.00 | 0.00 | 44 | 1009.6 |
| 20260509013917 | 57 | 292 | 1.0 | 2.0 | 0.00 | 0.00 | 0.00 | 45 | 1009.6 |
| 20260509013316 | 57 | 45 | 1.0 | 3.0 | 0.00 | 0.00 | 0.00 | 45 | 1009.7 |
| 20260509012902 | 57 | 45 | 0.0 | 3.0 | 0.00 | 0.00 | 0.00 | 45 | 1009.8 |
| 20260509012700 | 57 | 45 | 2.0 | 3.0 | 0.00 | 0.00 | 0.00 | 46 | 1009.9 |
| 20260509012457 | 57 | 45 | 2.0 | 3.0 | 0.00 | 0.00 | 0.00 | 45 | 1009.9 |
| 20260509012053 | 57 | 45 | 0.0 | 1.0 | 0.00 | 0.00 | 0.00 | 45 | 1009.9 |
| 20260509011851 | 57 | 0 | 1.0 | 1.0 | 0.00 | 0.00 | 0.00 | 45 | 1009.8 |
| 20260509011451 | 57 | 45 | 3.0 | 3.0 | 0.00 | 0.00 | 0.00 | 45 | 1009.8 |
| 20260509011243 | 57 | 33 | 2.0 | 3.0 | 0.00 | 0.00 | 0.00 | 45 | 1009.9 |
| 20260509011040 | 57 | 45 | 2.0 | 5.0 | 0.00 | 0.00 | 0.00 | 45 | 1009.9 |
| 20260509010436 | 57 | 45 | 0.0 | 2.0 | 0.00 | 0.00 | 0.00 | 45 | 1010.0 |
| 20260509010235 | 57 | 45 | 1.0 | 4.0 | 0.00 | 0.00 | 0.00 | 45 | 1010.0 |
| 20260509005627 | 57 | 45 | 1.0 | 3.0 | 0.00 | 0.00 | 0.00 | 46 | 1009.9 |
| 20260509005425 | 57 | 45 | 3.0 | 3.0 | 0.00 | 0.00 | 0.00 | 46 | 1010.0 |
| 20260509005319 | 57 | 45 | 2.0 | 2.0 | 0.00 | 0.00 | 0.00 | 46 | 1009.9 |
| 20260509005218 | 57 | 45 | 0.0 | 0.0 | 0.00 | 0.00 | 0.00 | 46 | 1010.0 |
| 20260509005125 | 57 | 45 | 0.0 | 0.0 | 0.00 | 0.00 | 0.00 | 46 | 1010.0 |
| 20260509004925 | 57 | 45 | 0.0 | 2.0 | 0.00 | 0.00 | 0.00 | 47 | 1009.9 |
| 20260509004724 | 57 | 45 | 0.0 | 2.0 | 0.00 | 0.00 | 0.00 | 46 | 1010.0 |
| 20260509004646 | 57 | 292 | 0.0 | 3.0 | 0.00 | 0.00 | 0.00 | 47 | 1010.1 |
| 20260509004522 | 57 | 292 | 0.0 | 3.0 | 0.00 | 0.00 | 0.00 | 47 | 1010.1 |
| 20260509003712 | 57 | 45 | 0.0 | 0.0 | 0.00 | 0.00 | 0.00 | 47 | 1010.1 |
| 20260509003511 | 58 | 45 | 0.0 | 0.0 | 0.00 | 0.00 | 0.00 | 47 | 1010.1 |
| 20260509003125 | 58 | 45 | 0.0 | 0.0 | 0.00 | 0.00 | 0.00 | 50 | 1010.1 |
| 20260509002925 | 58 | 45 | 0.0 | 0.0 | 0.00 | 0.00 | 0.00 | 49 | 1010.2 |
| 20260509001911 | 58 | 45 | 1.0 | 1.0 | 0.00 | 0.00 | 0.00 | 47 | 1010.2 |
| 20260509001712 | 58 | 45 | 1.0 | 2.0 | 0.00 | 0.00 | 0.00 | 48 | 1010.2 |
| 20260509001506 | 58 | 45 | 1.0 | 2.0 | 0.00 | 0.00 | 0.00 | 48 | 1010.3 |
| 20260509001103 | 58 | 45 | 0.0 | 123.0 | 0.00 | 0.00 | 0.00 | 49 | 1009.9 |
| 20260508234444 | 58 | 45 | 125.0 | 125.0 | 0.00 | 0.00 | 0.00 | 48 | 1010.1 |
| 20260508233744 | 58 | 45 | 0.0 | 2.0 | 0.00 | 0.00 | 0.00 | 47 | 1010.2 |
| 20260508233542 | 58 | 303 | 0.0 | 2.0 | 0.00 | 0.00 | 0.00 | 48 | 1010.1 |
| 20260508233343 | 59 | 292 | 1.0 | 1.0 | 0.00 | 0.00 | 0.00 | 48 | 1010.2 |
| 20260508232934 | 59 | 292 | 0.0 | 1.0 | 0.00 | 0.00 | 0.00 | 47 | 1010.2 |
| 20260508232530 | 59 | 45 | 0.0 | 125.0 | 0.00 | 0.00 | 0.00 | 48 | 1010.2 |
| 20260508232427 | 59 | 45 | 125.0 | 125.0 | 0.00 | 0.00 | 0.00 | 47 | 1010.2 |
| 20260508232403 | 59 | 45 | 2.0 | 3.0 | 0.00 | 0.00 | 0.00 | 49 | 1010.2 |
| 20260508232202 | 59 | 45 | 3.0 | 3.0 | 0.00 | 0.00 | 0.00 | 47 | 1010.3 |
| 20260508232000 | 59 | 45 | 2.0 | 2.0 | 0.00 | 0.00 | 0.00 | 49 | 1010.2 |
| 20260508231555 | 59 | 45 | 1.0 | 1.0 | 0.00 | 0.00 | 0.00 | 50 | 1010.3 |
| 20260508231351 | 59 | 337 | 0.0 | 0.0 | 0.00 | 0.00 | 0.00 | 48 | 1010.2 |
| 20260508231109 | 59 | 337 | 0.0 | 2.0 | 0.00 | 0.00 | 0.00 | 49 | 1010.3 |
| 20260508230703 | 59 | 45 | 3.0 | 4.0 | 0.00 | 0.00 | 0.00 | 50 | 1010.3 |
| 20260508225853 | 59 | 337 | 1.0 | 126.0 | 0.00 | 0.00 | 0.00 | 51 | 1010.3 |
| 20260508225521 | 59 | 337 | 1.0 | 1.0 | 0.00 | 0.00 | 0.00 | 51 | 1010.3 |
| 20260508225320 | 59 | 337 | 1.0 | 2.0 | 0.00 | 0.00 | 0.00 | 54 | 1010.3 |
| 20260508224233 | 60 | 337 | 1.0 | 2.0 | 0.00 | 0.00 | 0.00 | 53 | 1010.4 |
| 20260508223625 | 60 | 315 | 0.0 | 0.0 | 0.00 | 0.00 | 0.00 | 51 | 1010.4 |
| 20260508223426 | 60 | 303 | 0.0 | 0.0 | 0.00 | 0.00 | 0.00 | 53 | 1010.3 |
| 20260508222815 | 60 | 315 | 0.0 | 0.0 | 0.00 | 0.00 | 0.00 | 52 | 1010.5 |
| 20260508222630 | 60 | 315 | 0.0 | 0.0 | 0.00 | 0.00 | 0.00 | 52 | 1010.6 |
| 20260508221317 | 60 | 315 | 125.0 | 125.0 | 0.00 | 0.00 | 0.00 | 51 | 1010.5 |
| 20260508221043 | 60 | 315 | 1.0 | 2.0 | 0.00 | 0.00 | 0.00 | 51 | 1010.3 |
| 20260508220841 | 60 | 315 | 1.0 | 2.0 | 0.00 | 0.00 | 0.00 | 51 | 1010.5 |
| 20260508215832 | 60 | 270 | 0.0 | 0.0 | 0.00 | 0.00 | 0.00 | 51 | 1010.5 |
| 20260508215404 | 60 | 337 | 0.0 | 1.0 | 0.00 | 0.00 | 0.00 | 51 | 1010.5 |
| 20260508215000 | 60 | 337 | 1.0 | 1.0 | 0.00 | 0.00 | 0.00 | 50 | 1010.2 |
| 20260508214556 | 60 | 326 | 0.0 | 0.0 | 0.00 | 0.00 | 0.00 | 49 | 1010.4 |
| 20260508213643 | 61 | 0 | 2.0 | 124.0 | 0.00 | 0.00 | 0.00 | 50 | 1010.4 |
| 20260508213338 | 61 | 337 | 124.0 | 124.0 | 0.00 | 0.00 | 0.00 | 50 | 1010.4 |
| 20260508213042 | 61 | 337 | 1.0 | 3.0 | 0.00 | 0.00 | 0.00 | 49 | 1010.5 |
| 20260508212843 | 61 | 337 | 2.0 | 2.0 | 0.00 | 0.00 | 0.00 | 49 | 1010.5 |
| 20260508212632 | 61 | 0 | 0.0 | 1.0 | 0.00 | 0.00 | 0.00 | 49 | 1010.5 |
| 20260508212430 | 61 | 348 | 1.0 | 125.0 | 0.00 | 0.00 | 0.00 | 49 | 1010.6 |
| 20260508211843 | 61 | 337 | 1.0 | 2.0 | 0.00 | 0.00 | 0.00 | 47 | 1010.5 |
| 20260508211640 | 61 | 337 | 1.0 | 3.0 | 0.00 | 0.00 | 0.00 | 48 | 1010.6 |
| 20260508211236 | 61 | 337 | 2.0 | 3.0 | 0.00 | 0.00 | 0.00 | 48 | 1010.5 |
| 20260508211037 | 61 | 303 | 1.0 | 2.0 | 0.00 | 0.00 | 0.00 | 48 | 1010.5 |
| 20260508210654 | 61 | 348 | 2.0 | 3.0 | 0.00 | 0.00 | 0.00 | 50 | 1010.5 |
| 20260508210041 | 61 | 337 | 2.0 | 2.0 | 0.00 | 0.00 | 0.00 | 48 | 1010.5 |
| 20260508205434 | 62 | 337 | 2.0 | 125.0 | 0.00 | 0.00 | 0.00 | 47 | 1010.6 |
| 20260508205332 | 62 | 337 | 125.0 | 125.0 | 0.00 | 0.00 | 0.00 | 47 | 1010.7 |
| 20260508205259 | 62 | 337 | 1.0 | 2.0 | 0.00 | 0.00 | 0.00 | 47 | 1010.6 |
| 20260508205052 | 62 | 326 | 1.0 | 2.0 | 0.00 | 0.00 | 0.00 | 47 | 1010.7 |
| 20260508204850 | 62 | 270 | 2.0 | 2.0 | 0.00 | 0.00 | 0.00 | 47 | 1010.7 |
| 20260508204648 | 62 | 270 | 0.0 | 123.0 | 0.00 | 0.00 | 0.00 | 47 | 1010.7 |
| 20260508204118 | 62 | 315 | 0.0 | 1.0 | 0.00 | 0.00 | 0.00 | 47 | 1010.6 |
| 20260508203915 | 62 | 315 | 0.0 | 2.0 | 0.00 | 0.00 | 0.00 | 46 | 1010.6 |
| 20260508203716 | 62 | 292 | 1.0 | 2.0 | 0.00 | 0.00 | 0.00 | 46 | 1010.6 |
| 20260508203511 | 62 | 292 | 0.0 | 0.0 | 0.00 | 0.00 | 0.00 | 46 | 1010.7 |
| 20260508203408 | 62 | 292 | 0.0 | 0.0 | 0.00 | 0.00 | 0.00 | 46 | 1010.7 |
| 20260508203309 | 62 | 292 | 0.0 | 0.0 | 0.00 | 0.00 | 0.00 | 46 | 1010.7 |
| 20260508202910 | 62 | 270 | 0.0 | 0.0 | 0.00 | 0.00 | 0.00 | 46 | 1010.6 |
| 20260508202516 | 62 | 270 | 1.0 | 2.0 | 0.00 | 0.00 | 0.00 | 46 | 1010.7 |
| 20260508202441 | 62 | 270 | 1.0 | 2.0 | 0.00 | 0.00 | 0.00 | 46 | 1010.7 |
| 20260508202234 | 63 | 270 | 1.0 | 2.0 | 0.00 | 0.00 | 0.00 | 46 | 1010.6 |
| 20260508202032 | 63 | 315 | 2.0 | 2.0 | 0.00 | 0.00 | 0.00 | 46 | 1010.7 |
| 20260508201830 | 63 | 0 | 2.0 | 2.0 | 0.00 | 0.00 | 0.00 | 46 | 1010.6 |
| 20260508201329 | 63 | 0 | 2.0 | 3.0 | 0.00 | 0.00 | 0.00 | 46 | 1010.7 |
| 20260508201127 | 63 | 0 | 2.0 | 3.0 | 0.00 | 0.00 | 0.00 | 45 | 1010.6 |
| 20260508200928 | 63 | 0 | 2.0 | 3.0 | 0.00 | 0.00 | 0.00 | 45 | 1010.5 |
| 20260508200727 | 63 | 0 | 0.0 | 0.0 | 0.00 | 0.00 | 0.00 | 46 | 1010.6 |
| 20260508200626 | 63 | 326 | 1.0 | 3.0 | 0.00 | 0.00 | 0.00 | 46 | 1010.7 |
| 20260508200513 | 63 | 270 | 3.0 | 4.0 | 0.00 | 0.00 | 0.00 | 46 | 1010.7 |
| 20260508200424 | 63 | 270 | 3.0 | 4.0 | 0.00 | 0.00 | 0.00 | 46 | 1010.7 |
| 20260508200226 | 63 | 270 | 3.0 | 4.0 | 0.00 | 0.00 | 0.00 | 45 | 1010.5 |
| 20260508195820 | 63 | 270 | 3.0 | 3.0 | 0.00 | 0.00 | 0.00 | 44 | 1010.5 |
| 20260508195414 | 64 | 270 | 1.0 | 3.0 | 0.00 | 0.00 | 0.00 | 44 | 1010.4 |
| 20260508195216 | 64 | 292 | 1.0 | 4.0 | 0.00 | 0.00 | 0.00 | 44 | 1010.5 |
| 20260508195011 | 64 | 292 | 3.0 | 4.0 | 0.00 | 0.00 | 0.00 | 44 | 1010.5 |
| 20260508194806 | 64 | 0 | 2.0 | 4.0 | 0.00 | 0.00 | 0.00 | 44 | 1010.5 |
| 20260508194200 | 64 | 315 | 3.0 | 3.0 | 0.00 | 0.00 | 0.00 | 43 | 1010.4 |
| 20260508194029 | 64 | 270 | 0.0 | 4.0 | 0.00 | 0.00 | 0.00 | 43 | 1010.4 |
| 20260508193957 | 64 | 270 | 0.0 | 4.0 | 0.00 | 0.00 | 0.00 | 43 | 1010.4 |
| 20260508193754 | 64 | 315 | 3.0 | 4.0 | 0.00 | 0.00 | 0.00 | 42 | 1010.2 |
| 20260508193552 | 65 | 315 | 4.0 | 5.0 | 0.00 | 0.00 | 0.00 | 42 | 1010.3 |
| 20260508192540 | 65 | 315 | 4.0 | 5.0 | 0.00 | 0.00 | 0.00 | 41 | 1010.2 |
| 20260508191529 | 66 | 270 | 2.0 | 6.0 | 0.00 | 0.00 | 0.00 | 40 | 1010.3 |
| 20260508185502 | 67 | 315 | 4.0 | 8.0 | 0.00 | 0.00 | 0.00 | 36 | 1010.3 |
| 20260508183845 | 68 | 315 | 4.0 | 4.0 | 0.00 | 0.00 | 0.00 | 35 | 1009.9 |
| 20260508183642 | 69 | 315 | 4.0 | 5.0 | 0.00 | 0.00 | 0.00 | 35 | 1009.9 |
| 20260508182428 | 69 | 270 | 2.0 | 6.0 | 0.00 | 0.00 | 0.00 | 33 | 1009.7 |
| 20260508181055 | 71 | 292 | 4.0 | 9.0 | 0.00 | 0.00 | 0.00 | 32 | 1009.4 |
| 20260508181013 | 71 | 292 | 4.0 | 9.0 | 0.00 | 0.00 | 0.00 | 32 | 1009.4 |
| 20260508180811 | 71 | 315 | 4.0 | 11.0 | 0.00 | 0.00 | 0.00 | 32 | 1009.4 |
| 20260508180705 | 71 | 315 | 3.0 | 12.0 | 0.00 | 0.00 | 0.00 | 31 | 1009.3 |
| 20260508180608 | 71 | 315 | 3.0 | 12.0 | 0.00 | 0.00 | 0.00 | 31 | 1009.3 |
| 20260508180405 | 71 | 0 | 6.0 | 12.0 | 0.00 | 0.00 | 0.00 | 31 | 1009.3 |
| 20260508175859 | 72 | 270 | 6.0 | 15.0 | 0.00 | 0.00 | 0.00 | 32 | 1009.3 |
| 20260508175415 | 72 | 270 | 1.0 | 10.0 | 0.00 | 0.00 | 0.00 | 31 | 1009.1 |
| 20260508175300 | 72 | 315 | 10.0 | 10.0 | 0.00 | 0.00 | 0.00 | 31 | 1009.0 |
| 20260508174541 | 73 | 315 | 1.0 | 11.0 | 0.00 | 0.00 | 0.00 | 31 | 1009.0 |
| 20260508174349 | 73 | 270 | 11.0 | 11.0 | 0.00 | 0.00 | 0.00 | 31 | 1009.0 |
| 20260508174044 | 73 | 315 | 6.0 | 6.0 | 0.00 | 0.00 | 0.00 | 31 | 1008.8 |
| 20260508173842 | 73 | 315 | 3.0 | 8.0 | 0.00 | 0.00 | 0.00 | 29 | 1008.7 |
| 20260508173643 | 73 | 315 | 5.0 | 8.0 | 0.00 | 0.00 | 0.00 | 29 | 1008.7 |
| 20260508173549 | 74 | 315 | 9.0 | 9.0 | 0.00 | 0.00 | 0.00 | 29 | 1008.5 |
| 20260508173440 | 74 | 315 | 4.0 | 9.0 | 0.00 | 0.00 | 0.00 | 29 | 1008.6 |
| 20260508173033 | 74 | 315 | 6.0 | 11.0 | 0.00 | 0.00 | 0.00 | 29 | 1008.6 |
| 20260508172830 | 74 | 315 | 9.0 | 9.0 | 0.00 | 0.00 | 0.00 | 29 | 1008.5 |
| 20260508172628 | 74 | 315 | 5.0 | 7.0 | 0.00 | 0.00 | 0.00 | 29 | 1008.6 |
| 20260508172427 | 74 | 315 | 4.0 | 7.0 | 0.00 | 0.00 | 0.00 | 28 | 1008.5 |
| 20260508172224 | 74 | 315 | 7.0 | 9.0 | 0.00 | 0.00 | 0.00 | 29 | 1008.4 |
| 20260508172154 | 75 | 337 | 6.0 | 13.0 | 0.00 | 0.00 | 0.00 | 29 | 1008.4 |
| 20260508172021 | 75 | 315 | 7.0 | 9.0 | 0.00 | 0.00 | 0.00 | 28 | 1008.4 |
| 20260508171819 | 75 | 337 | 6.0 | 13.0 | 0.00 | 0.00 | 0.00 | 29 | 1008.4 |
| 20260508171619 | 75 | 270 | 9.0 | 13.0 | 0.00 | 0.00 | 0.00 | 29 | 1008.3 |
| 20260508171415 | 75 | 315 | 9.0 | 9.0 | 0.00 | 0.00 | 0.00 | 29 | 1008.3 |
| 20260508171257 | 75 | 315 | 10.0 | 10.0 | 0.00 | 0.00 | 0.00 | 28 | 1008.2 |
| 20260508171214 | 75 | 315 | 7.0 | 10.0 | 0.00 | 0.00 | 0.00 | 29 | 1008.3 |
| 20260508170808 | 75 | 315 | 10.0 | 10.0 | 0.00 | 0.00 | 0.00 | 28 | 1008.2 |
| 20260508170605 | 75 | 315 | 5.0 | 11.0 | 0.00 | 0.00 | 0.00 | 28 | 1008.1 |
| 20260508170406 | 76 | 337 | 8.0 | 11.0 | 0.00 | 0.00 | 0.00 | 28 | 1008.2 |
| 20260508170000 | 76 | 315 | 5.0 | 12.0 | 0.00 | 0.00 | 0.00 | 27 | 1008.2 |
| 20260508165352 | 76 | 337 | 6.0 | 11.0 | 0.00 | 0.00 | 0.00 | 27 | 1008.2 |
| 20260508164543 | 77 | 0 | 6.0 | 9.0 | 0.00 | 0.00 | 0.00 | 27 | 1008.2 |
| 20260508164341 | 77 | 315 | 8.0 | 9.0 | 0.00 | 0.00 | 0.00 | 28 | 1008.2 |
| 20260508164139 | 77 | 315 | 7.0 | 9.0 | 0.00 | 0.00 | 0.00 | 27 | 1008.3 |
| 20260508163531 | 76 | 315 | 7.0 | 11.0 | 0.00 | 0.00 | 0.00 | 28 | 1008.1 |
| 20260508163329 | 76 | 0 | 9.0 | 11.0 | 0.00 | 0.00 | 0.00 | 28 | 1008.1 |
| 20260508162925 | 76 | 315 | 7.0 | 13.0 | 0.00 | 0.00 | 0.00 | 28 | 1008.1 |
| 20260508162632 | 76 | 0 | 9.0 | 13.0 | 0.00 | 0.00 | 0.00 | 28 | 1008.1 |
| 20260508162520 | 76 | 315 | 8.0 | 10.0 | 0.00 | 0.00 | 0.00 | 28 | 1008.1 |
| 20260508162318 | 76 | 0 | 9.0 | 13.0 | 0.00 | 0.00 | 0.00 | 28 | 1008.1 |
| 20260508161915 | 76 | 315 | 7.0 | 11.0 | 0.00 | 0.00 | 0.00 | 28 | 1008.1 |
| 20260508161711 | 76 | 315 | 6.0 | 12.0 | 0.00 | 0.00 | 0.00 | 29 | 1008.1 |
| 20260508161307 | 76 | 315 | 8.0 | 12.0 | 0.00 | 0.00 | 0.00 | 28 | 1008.0 |
| 20260508161105 | 76 | 0 | 5.0 | 11.0 | 0.00 | 0.00 | 0.00 | 28 | 1008.0 |
| 20260508160755 | 76 | 315 | 8.0 | 13.0 | 0.00 | 0.00 | 0.00 | 29 | 1008.1 |
| 20260508160457 | 76 | 315 | 11.0 | 13.0 | 0.00 | 0.00 | 0.00 | 29 | 1008.0 |
| 20260508160255 | 76 | 315 | 8.0 | 13.0 | 0.00 | 0.00 | 0.00 | 29 | 1008.1 |
| 20260508160053 | 76 | 337 | 9.0 | 11.0 | 0.00 | 0.00 | 0.00 | 28 | 1008.0 |
| 20260508155851 | 76 | 292 | 7.0 | 11.0 | 0.00 | 0.00 | 0.00 | 28 | 1008.1 |
| 20260508155655 | 76 | 337 | 6.0 | 10.0 | 0.00 | 0.00 | 0.00 | 29 | 1008.2 |
| 20260508155245 | 77 | 315 | 14.0 | 14.0 | 0.00 | 0.00 | 0.00 | 29 | 1008.3 |
| 20260508155042 | 76 | 315 | 11.0 | 12.0 | 0.00 | 0.00 | 0.00 | 29 | 1008.2 |
| 20260508154839 | 76 | 337 | 6.0 | 10.0 | 0.00 | 0.00 | 0.00 | 29 | 1008.2 |
| 20260508154727 | 76 | 45 | 3.0 | 12.0 | 0.00 | 0.00 | 0.00 | 28 | 1008.2 |
| 20260508154435 | 76 | 45 | 3.0 | 12.0 | 0.00 | 0.00 | 0.00 | 28 | 1008.2 |
| 20260508154233 | 77 | 337 | 11.0 | 12.0 | 0.00 | 0.00 | 0.00 | 28 | 1008.2 |
| 20260508154030 | 77 | 337 | 11.0 | 12.0 | 0.00 | 0.00 | 0.00 | 29 | 1008.3 |
| 20260508153629 | 77 | 292 | 7.0 | 13.0 | 0.00 | 0.00 | 0.00 | 28 | 1008.3 |
| 20260508153423 | 77 | 337 | 11.0 | 13.0 | 0.00 | 0.00 | 0.00 | 28 | 1008.4 |
| 20260508153019 | 77 | 0 | 6.0 | 12.0 | 0.00 | 0.00 | 0.00 | 29 | 1008.4 |
| 20260508152614 | 77 | 292 | 12.0 | 16.0 | 0.00 | 0.00 | 0.00 | 28 | 1008.3 |
| 20260508152412 | 77 | 0 | 15.0 | 16.0 | 0.00 | 0.00 | 0.00 | 28 | 1008.4 |
| 20260508152008 | 77 | 0 | 8.0 | 14.0 | 0.00 | 0.00 | 0.00 | 28 | 1008.3 |
| 20260508151805 | 77 | 315 | 7.0 | 14.0 | 0.00 | 0.00 | 0.00 | 28 | 1008.3 |
| 20260508151400 | 77 | 0 | 3.0 | 13.0 | 0.00 | 0.00 | 0.00 | 29 | 1008.3 |
| 20260508150956 | 77 | 326 | 12.0 | 13.0 | 0.00 | 0.00 | 0.00 | 29 | 1008.4 |
| 20260508150551 | 76 | 0 | 4.0 | 12.0 | 0.00 | 0.00 | 0.00 | 30 | 1008.5 |
| 20260508150349 | 76 | 315 | 8.0 | 14.0 | 0.00 | 0.00 | 0.00 | 30 | 1008.4 |
| 20260508145743 | 76 | 315 | 9.0 | 14.0 | 0.00 | 0.00 | 0.00 | 30 | 1008.6 |
| 20260508145540 | 76 | 326 | 13.0 | 14.0 | 0.00 | 0.00 | 0.00 | 31 | 1008.5 |
| 20260508145338 | 76 | 315 | 8.0 | 14.0 | 0.00 | 0.00 | 0.00 | 31 | 1008.4 |
| 20260508145037 | 76 | 315 | 11.0 | 14.0 | 0.00 | 0.00 | 0.00 | 31 | 1008.4 |
| 20260508144939 | 76 | 315 | 11.0 | 14.0 | 0.00 | 0.00 | 0.00 | 31 | 1008.4 |
| 20260508144529 | 76 | 315 | 14.0 | 14.0 | 0.00 | 0.00 | 0.00 | 32 | 1008.4 |
| 20260508144407 | 76 | 292 | 10.0 | 14.0 | 0.00 | 0.00 | 0.00 | 31 | 1008.5 |
| 20260508144326 | 76 | 292 | 10.0 | 14.0 | 0.00 | 0.00 | 0.00 | 31 | 1008.5 |
| 20260508143922 | 75 | 315 | 12.0 | 14.0 | 0.00 | 0.00 | 0.00 | 31 | 1008.5 |
| 20260508143517 | 75 | 315 | 13.0 | 13.0 | 0.00 | 0.00 | 0.00 | 32 | 1008.7 |
| 20260508142911 | 75 | 315 | 10.0 | 15.0 | 0.00 | 0.00 | 0.00 | 32 | 1008.6 |
| 20260508142708 | 74 | 315 | 11.0 | 15.0 | 0.00 | 0.00 | 0.00 | 32 | 1008.8 |
| 20260508142506 | 74 | 315 | 10.0 | 12.0 | 0.00 | 0.00 | 0.00 | 33 | 1008.7 |
| 20260508142306 | 74 | 315 | 6.0 | 11.0 | 0.00 | 0.00 | 0.00 | 33 | 1008.7 |
| 20260508141534 | 73 | 315 | 13.0 | 13.0 | 0.00 | 0.00 | 0.00 | 33 | 1008.6 |
| 20260508141333 | 73 | 315 | 10.0 | 10.0 | 0.00 | 0.00 | 0.00 | 32 | 1008.6 |
| 20260508140554 | 72 | 315 | 7.0 | 12.0 | 0.00 | 0.00 | 0.00 | 32 | 1008.7 |
| 20260508140523 | 72 | 315 | 7.0 | 12.0 | 0.00 | 0.00 | 0.00 | 32 | 1008.7 |
| 20260508140321 | 72 | 315 | 7.0 | 12.0 | 0.00 | 0.00 | 0.00 | 32 | 1008.8 |
| 20260508135917 | 72 | 315 | 10.0 | 15.0 | 0.00 | 0.00 | 0.00 | 32 | 1008.7 |
| 20260508135552 | 72 | 315 | 10.0 | 14.0 | 0.00 | 0.00 | 0.00 | 32 | 1008.7 |
| 20260508135513 | 72 | 315 | 10.0 | 14.0 | 0.00 | 0.00 | 0.00 | 32 | 1008.7 |
| 20260508135310 | 72 | 315 | 8.0 | 13.0 | 0.00 | 0.00 | 0.00 | 32 | 1008.6 |
| 20260508134906 | 71 | 315 | 11.0 | 12.0 | 0.00 | 0.00 | 0.00 | 32 | 1008.8 |
| 20260508134704 | 71 | 315 | 12.0 | 14.0 | 0.00 | 0.00 | 0.00 | 32 | 1008.7 |
| 20260508134533 | 71 | 315 | 13.0 | 14.0 | 0.00 | 0.00 | 0.00 | 32 | 1008.7 |
| 20260508134500 | 71 | 315 | 13.0 | 14.0 | 0.00 | 0.00 | 0.00 | 32 | 1008.7 |
| 20260508134408 | 71 | 315 | 9.0 | 10.0 | 0.00 | 0.00 | 0.00 | 32 | 1008.6 |
| 20260508134258 | 71 | 315 | 9.0 | 10.0 | 0.00 | 0.00 | 0.00 | 32 | 1008.6 |
| 20260508133854 | 71 | 315 | 7.0 | 14.0 | 0.00 | 0.00 | 0.00 | 33 | 1008.7 |
| 20260508133247 | 71 | 315 | 13.0 | 15.0 | 0.00 | 0.00 | 0.00 | 32 | 1008.7 |
| 20260508133045 | 71 | 315 | 13.0 | 13.0 | 0.00 | 0.00 | 0.00 | 33 | 1008.7 |
| 20260508132843 | 71 | 315 | 7.0 | 11.0 | 0.00 | 0.00 | 0.00 | 32 | 1008.5 |
| 20260508132643 | 70 | 315 | 8.0 | 10.0 | 0.00 | 0.00 | 0.00 | 32 | 1008.6 |
| 20260508132438 | 70 | 315 | 6.0 | 8.0 | 0.00 | 0.00 | 0.00 | 31 | 1008.7 |
| 20260508132236 | 70 | 315 | 7.0 | 8.0 | 0.00 | 0.00 | 0.00 | 32 | 1008.7 |
| 20260508132034 | 70 | 315 | 4.0 | 10.0 | 0.00 | 0.00 | 0.00 | 31 | 1008.8 |
| 20260508131914 | 70 | 315 | 7.0 | 12.0 | 0.00 | 0.00 | 0.00 | 31 | 1008.8 |
| 20260508131834 | 70 | 315 | 7.0 | 12.0 | 0.00 | 0.00 | 0.00 | 31 | 1008.8 |
| 20260508131632 | 70 | 315 | 8.0 | 12.0 | 0.00 | 0.00 | 0.00 | 30 | 1008.8 |
| 20260508131426 | 71 | 315 | 7.0 | 12.0 | 0.00 | 0.00 | 0.00 | 30 | 1008.7 |
| 20260508131055 | 71 | 315 | 10.0 | 12.0 | 0.00 | 0.00 | 0.00 | 30 | 1008.7 |
| 20260508131022 | 71 | 315 | 10.0 | 12.0 | 0.00 | 0.00 | 0.00 | 30 | 1008.7 |
| 20260508130618 | 71 | 315 | 8.0 | 14.0 | 0.00 | 0.00 | 0.00 | 30 | 1008.8 |
| 20260508130415 | 71 | 315 | 7.0 | 14.0 | 0.00 | 0.00 | 0.00 | 29 | 1008.7 |
| 20260508125809 | 71 | 315 | 8.0 | 13.0 | 0.00 | 0.00 | 0.00 | 29 | 1008.8 |
| 20260508125607 | 71 | 315 | 10.0 | 12.0 | 0.00 | 0.00 | 0.00 | 29 | 1008.8 |
| 20260508125404 | 71 | 315 | 10.0 | 14.0 | 0.00 | 0.00 | 0.00 | 30 | 1008.7 |
| 20260508125202 | 71 | 315 | 11.0 | 14.0 | 0.00 | 0.00 | 0.00 | 30 | 1008.7 |
| 20260508124959 | 71 | 315 | 11.0 | 12.0 | 0.00 | 0.00 | 0.00 | 30 | 1008.6 |
| 20260508124758 | 71 | 315 | 7.0 | 14.0 | 0.00 | 0.00 | 0.00 | 31 | 1008.7 |
| 20260508124352 | 71 | 315 | 8.0 | 11.0 | 0.00 | 0.00 | 0.00 | 31 | 1008.6 |
| 20260508124150 | 71 | 315 | 6.0 | 15.0 | 0.00 | 0.00 | 0.00 | 31 | 1008.5 |
| 20260508123948 | 70 | 315 | 11.0 | 15.0 | 0.00 | 0.00 | 0.00 | 31 | 1008.7 |
| 20260508123554 | 70 | 315 | 7.0 | 14.0 | 0.00 | 0.00 | 0.00 | 32 | 1008.5 |
| 20260508123351 | 70 | 315 | 11.0 | 14.0 | 0.00 | 0.00 | 0.00 | 32 | 1008.7 |
| 20260508122745 | 70 | 326 | 12.0 | 12.0 | 0.00 | 0.00 | 0.00 | 32 | 1008.7 |
| 20260508122340 | 69 | 303 | 7.0 | 11.0 | 0.00 | 0.00 | 0.00 | 32 | 1008.7 |
| 20260508121533 | 69 | 326 | 8.0 | 13.0 | 0.00 | 0.00 | 0.00 | 31 | 1008.8 |
| 20260508120924 | 69 | 315 | 5.0 | 9.0 | 0.00 | 0.00 | 0.00 | 32 | 1008.8 |
| 20260508120520 | 69 | 247 | 10.0 | 10.0 | 0.00 | 0.00 | 0.00 | 33 | 1008.9 |
| 20260508115913 | 69 | 292 | 13.0 | 13.0 | 0.00 | 0.00 | 0.00 | 33 | 1008.9 |
| 20260508115511 | 69 | 292 | 7.0 | 8.0 | 0.00 | 0.00 | 0.00 | 35 | 1008.9 |
| 20260508115306 | 68 | 315 | 6.0 | 11.0 | 0.00 | 0.00 | 0.00 | 34 | 1008.8 |
| 20260508114901 | 68 | 315 | 9.0 | 9.0 | 0.00 | 0.00 | 0.00 | 34 | 1008.8 |
| 20260508114457 | 68 | 292 | 9.0 | 12.0 | 0.00 | 0.00 | 0.00 | 34 | 1008.9 |
| 20260508114254 | 68 | 315 | 8.0 | 9.0 | 0.00 | 0.00 | 0.00 | 33 | 1008.9 |
| 20260508114052 | 68 | 337 | 6.0 | 9.0 | 0.00 | 0.00 | 0.00 | 33 | 1008.9 |
| 20260508113850 | 68 | 0 | 6.0 | 13.0 | 0.00 | 0.00 | 0.00 | 33 | 1008.9 |
| 20260508113715 | 68 | 337 | 9.0 | 16.0 | 0.00 | 0.00 | 0.00 | 32 | 1008.9 |
| 20260508113648 | 68 | 0 | 10.0 | 14.0 | 0.00 | 0.00 | 0.00 | 33 | 1009.0 |
| 20260508113041 | 68 | 337 | 9.0 | 16.0 | 0.00 | 0.00 | 0.00 | 32 | 1008.9 |
| 20260508112839 | 68 | 315 | 12.0 | 15.0 | 0.00 | 0.00 | 0.00 | 33 | 1008.9 |
| 20260508110817 | 68 | 315 | 12.0 | 17.0 | 0.00 | 0.00 | 0.00 | 31 | 1009.1 |
| 20260508110007 | 68 | 315 | 16.0 | 16.0 | 0.00 | 0.00 | 0.00 | 32 | 1009.1 |
| 20260508105805 | 68 | 315 | 12.0 | 16.0 | 0.00 | 0.00 | 0.00 | 33 | 1009.1 |
| 20260508105400 | 68 | 315 | 15.0 | 17.0 | 0.00 | 0.00 | 0.00 | 33 | 1009.1 |
| 20260508104753 | 68 | 315 | 12.0 | 14.0 | 0.00 | 0.00 | 0.00 | 32 | 1009.2 |
| 20260508103742 | 68 | 315 | 12.0 | 13.0 | 0.00 | 0.00 | 0.00 | 33 | 1009.4 |
| 20260508103540 | 68 | 303 | 10.0 | 15.0 | 0.00 | 0.00 | 0.00 | 33 | 1009.3 |
| 20260508103337 | 68 | 315 | 11.0 | 15.0 | 0.00 | 0.00 | 0.00 | 33 | 1009.3 |
| 20260508102933 | 68 | 315 | 10.0 | 15.0 | 0.00 | 0.00 | 0.00 | 32 | 1009.3 |
| 20260508102730 | 68 | 326 | 12.0 | 15.0 | 0.00 | 0.00 | 0.00 | 32 | 1009.2 |
| 20260508102528 | 68 | 315 | 9.0 | 16.0 | 0.00 | 0.00 | 0.00 | 32 | 1009.3 |
| 20260508102327 | 68 | 303 | 14.0 | 16.0 | 0.00 | 0.00 | 0.00 | 32 | 1009.2 |
| 20260508101922 | 69 | 315 | 11.0 | 16.0 | 0.00 | 0.00 | 0.00 | 31 | 1009.2 |
| 20260508101517 | 69 | 292 | 12.0 | 15.0 | 0.00 | 0.00 | 0.00 | 30 | 1009.2 |
| 20260508101315 | 69 | 292 | 12.0 | 14.0 | 0.00 | 0.00 | 0.00 | 31 | 1009.2 |
| 20260508100910 | 69 | 303 | 12.0 | 16.0 | 0.00 | 0.00 | 0.00 | 30 | 1009.2 |
| 20260508100506 | 69 | 303 | 9.0 | 12.0 | 0.00 | 0.00 | 0.00 | 29 | 1009.3 |
| 20260508100303 | 69 | 315 | 10.0 | 12.0 | 0.00 | 0.00 | 0.00 | 29 | 1009.4 |
| 20260508095858 | 70 | 292 | 11.0 | 13.0 | 0.00 | 0.00 | 0.00 | 28 | 1009.4 |
| 20260508095454 | 70 | 303 | 10.0 | 12.0 | 0.00 | 0.00 | 0.00 | 28 | 1009.3 |
| 20260508095051 | 70 | 292 | 10.0 | 11.0 | 0.00 | 0.00 | 0.00 | 28 | 1009.3 |
| 20260508094848 | 70 | 0 | 9.0 | 11.0 | 0.00 | 0.00 | 0.00 | 28 | 1009.3 |
| 20260508094241 | 70 | 348 | 8.0 | 11.0 | 0.00 | 0.00 | 0.00 | 27 | 1009.3 |
| 20260508094038 | 71 | 292 | 7.0 | 10.0 | 0.00 | 0.00 | 0.00 | 27 | 1009.3 |
| 20260508093836 | 71 | 292 | 8.0 | 10.0 | 0.00 | 0.00 | 0.00 | 27 | 1009.4 |
| 20260508091851 | 73 | 315 | 7.0 | 9.0 | 0.00 | 0.00 | 0.00 | 24 | 1009.4 |
| 20260508091815 | 73 | 315 | 7.0 | 9.0 | 0.00 | 0.00 | 0.00 | 24 | 1009.4 |
| 20260508091611 | 73 | 337 | 9.0 | 11.0 | 0.00 | 0.00 | 0.00 | 23 | 1009.3 |
| 20260508085953 | 76 | 337 | 8.0 | 9.0 | 0.00 | 0.00 | 0.00 | 21 | 1009.4 |
| 20260508085346 | 77 | 315 | 6.0 | 8.0 | 0.00 | 0.00 | 0.00 | 20 | 1009.5 |
| 20260508084537 | 78 | 292 | 6.0 | 8.0 | 0.00 | 0.00 | 0.00 | 21 | 1009.4 |
| 20260508083932 | 79 | 315 | 4.0 | 7.0 | 0.00 | 0.00 | 0.00 | 20 | 1009.4 |
| 20260508083728 | 79 | 315 | 5.0 | 7.0 | 0.00 | 0.00 | 0.00 | 20 | 1009.4 |
| 20260508083526 | 79 | 292 | 6.0 | 7.0 | 0.00 | 0.00 | 0.00 | 20 | 1009.4 |
| 20260508082918 | 80 | 292 | 7.0 | 7.0 | 0.00 | 0.00 | 0.00 | 19 | 1009.4 |
| 20260508082312 | 80 | 315 | 4.0 | 5.0 | 0.00 | 0.00 | 0.00 | 21 | 1009.4 |
| 20260508082110 | 80 | 315 | 4.0 | 5.0 | 0.00 | 0.00 | 0.00 | 21 | 1009.4 |
| 20260508081909 | 80 | 315 | 4.0 | 4.0 | 0.00 | 0.00 | 0.00 | 21 | 1009.5 |
| 20260508081713 | 80 | 315 | 4.0 | 4.0 | 0.00 | 0.00 | 0.00 | 21 | 1009.5 |
| 20260508081503 | 80 | 270 | 4.0 | 5.0 | 0.00 | 0.00 | 0.00 | 21 | 1009.5 |
| 20260508081301 | 80 | 270 | 5.0 | 6.0 | 0.00 | 0.00 | 0.00 | 20 | 1009.5 |
| 20260508081059 | 81 | 270 | 3.0 | 6.0 | 0.00 | 0.00 | 0.00 | 19 | 1009.5 |
| 20260508080856 | 81 | 315 | 5.0 | 6.0 | 0.00 | 0.00 | 0.00 | 18 | 1009.5 |
| 20260508080654 | 81 | 303 | 4.0 | 6.0 | 0.00 | 0.00 | 0.00 | 18 | 1009.6 |
| 20260508080451 | 81 | 315 | 6.0 | 6.0 | 0.00 | 0.00 | 0.00 | 20 | 1009.6 |
| 20260508080131 | 81 | 315 | 6.0 | 6.0 | 0.00 | 0.00 | 0.00 | 21 | 1009.5 |
| 20260508080048 | 81 | 315 | 6.0 | 6.0 | 0.00 | 0.00 | 0.00 | 21 | 1009.5 |
| 20260508075036 | 81 | 315 | 3.0 | 4.0 | 0.00 | 0.00 | 0.00 | 25 | 1009.4 |
| 20260508074228 | 80 | 315 | 3.0 | 3.0 | 0.00 | 0.00 | 0.00 | 27 | 1009.5 |
| 20260508074024 | 80 | 315 | 2.0 | 3.0 | 0.00 | 0.00 | 0.00 | 26 | 1009.5 |
| 20260508073419 | 79 | 315 | 3.0 | 4.0 | 0.00 | 0.00 | 0.00 | 25 | 1009.5 |
| 20260508072407 | 78 | 315 | 1.0 | 1.0 | 0.00 | 0.00 | 0.00 | 28 | 1009.4 |
| 20260508072105 | 77 | 315 | 1.0 | 3.0 | 0.00 | 0.00 | 0.00 | 28 | 1009.4 |
| 20260508072002 | 77 | 315 | 1.0 | 3.0 | 0.00 | 0.00 | 0.00 | 28 | 1009.4 |
| 20260508071805 | 77 | 315 | 1.0 | 2.0 | 0.00 | 0.00 | 0.00 | 29 | 1009.4 |
| 20260508071155 | 76 | 337 | 0.0 | 1.0 | 0.00 | 0.00 | 0.00 | 29 | 1009.4 |
| 20260508070546 | 75 | 337 | 1.0 | 2.0 | 0.00 | 0.00 | 0.00 | 30 | 1009.3 |
| 20260508065537 | 73 | 337 | 0.0 | 1.0 | 0.00 | 0.00 | 0.00 | 32 | 1009.4 |
| 20260508065130 | 72 | 337 | 0.0 | 1.0 | 0.00 | 0.00 | 0.00 | 33 | 1009.4 |
| 20260508064928 | 72 | 337 | 1.0 | 1.0 | 0.00 | 0.00 | 0.00 | 32 | 1009.3 |
| 20260508064729 | 72 | 337 | 0.0 | 1.0 | 0.00 | 0.00 | 0.00 | 33 | 1009.5 |
| 20260508064523 | 71 | 337 | 1.0 | 1.0 | 0.00 | 0.00 | 0.00 | 33 | 1009.4 |
| 20260508064321 | 71 | 337 | 1.0 | 1.0 | 0.00 | 0.00 | 0.00 | 33 | 1009.5 |
| 20260508063729 | 70 | 337 | 1.0 | 1.0 | 0.00 | 0.00 | 0.00 | 35 | 1009.4 |
| 20260508063718 | 68 | 337 | 0.0 | 0.0 | 0.00 | 0.00 | 0.00 | 34 | 1009.4 |
| 20260508063517 | 69 | 337 | 0.0 | 1.0 | 0.00 | 0.00 | 0.00 | 35 | 1009.4 |
| 20260508063309 | 69 | 337 | 0.0 | 0.0 | 0.00 | 0.00 | 0.00 | 35 | 1009.3 |
| 20260508062905 | 68 | 337 | 0.0 | 0.0 | 0.00 | 0.00 | 0.00 | 34 | 1009.4 |
| 20260508062500 | 67 | 337 | 0.0 | 1.0 | 0.00 | 0.00 | 0.00 | 36 | 1009.4 |
| 20260508062258 | 67 | 337 | 1.0 | 1.0 | 0.00 | 0.00 | 0.00 | 37 | 1009.4 |
| 20260508062108 | 67 | 348 | 0.0 | 1.0 | 0.00 | 0.00 | 0.00 | 38 | 1009.3 |
| 20260508061450 | 65 | 315 | 0.0 | 0.0 | 0.00 | 0.00 | 0.00 | 39 | 1009.4 |
| 20260508061045 | 65 | 315 | 0.0 | 0.0 | 0.00 | 0.00 | 0.00 | 39 | 1009.4 |
| 20260508060842 | 64 | 315 | 0.0 | 0.0 | 0.00 | 0.00 | 0.00 | 39 | 1009.4 |
| 20260508060741 | 63 | 292 | 0.0 | 0.0 | 0.00 | 0.00 | 0.00 | 40 | 1009.2 |
| 20260508060439 | 63 | 292 | 0.0 | 0.0 | 0.00 | 0.00 | 0.00 | 40 | 1009.2 |
| 20260508060235 | 63 | 315 | 0.0 | 0.0 | 0.00 | 0.00 | 0.00 | 41 | 1009.3 |
| 20260508060033 | 62 | 315 | 0.0 | 0.0 | 0.00 | 0.00 | 0.00 | 41 | 1009.2 |
| 20260508055628 | 61 | 315 | 0.0 | 0.0 | 0.00 | 0.00 | 0.00 | 40 | 1009.2 |
| 20260508055224 | 60 | 292 | 0.0 | 0.0 | 0.00 | 0.00 | 0.00 | 39 | 1009.3 |
| 20260508055022 | 60 | 337 | 0.0 | 0.0 | 0.00 | 0.00 | 0.00 | 40 | 1009.3 |
| 20260508054008 | 58 | 337 | 0.0 | 124.0 | 0.00 | 0.00 | 0.00 | 42 | 1009.0 |
| 20260508053905 | 58 | 337 | 124.0 | 124.0 | 0.00 | 0.00 | 0.00 | 42 | 1009.1 |
| 20260508053749 | 58 | 337 | 1.0 | 1.0 | 0.00 | 0.00 | 0.00 | 42 | 1009.1 |
| 20260508053346 | 57 | 337 | 0.0 | 1.0 | 0.00 | 0.00 | 0.00 | 43 | 1009.0 |
| 20260508053143 | 57 | 337 | 0.0 | 1.0 | 0.00 | 0.00 | 0.00 | 43 | 1009.1 |
| 20260508053012 | 57 | 337 | 0.0 | 0.0 | 0.00 | 0.00 | 0.00 | 43 | 1009.1 |
| 20260508052940 | 57 | 337 | 0.0 | 0.0 | 0.00 | 0.00 | 0.00 | 43 | 1009.1 |
| 20260508052247 | 56 | 337 | 1.0 | 1.0 | 0.00 | 0.00 | 0.00 | 43 | 1009.0 |
| 20260508051841 | 55 | 292 | 0.0 | 0.0 | 0.00 | 0.00 | 0.00 | 43 | 1009.0 |
| 20260508051235 | 55 | 292 | 0.0 | 0.0 | 0.00 | 0.00 | 0.00 | 42 | 1009.0 |
| 20260508051032 | 55 | 292 | 0.0 | 0.0 | 0.00 | 0.00 | 0.00 | 42 | 1008.9 |
| 20260508050627 | 54 | 315 | 1.0 | 6.0 | 0.00 | 0.00 | 0.00 | 42 | 1009.0 |
| 20260508050425 | 54 | 270 | 1.0 | 6.0 | 0.00 | 0.00 | 0.00 | 42 | 1008.9 |
| 20260508050225 | 54 | 315 | 6.0 | 6.0 | 0.00 | 0.00 | 0.00 | 42 | 1008.9 |
| 20260508045616 | 54 | 348 | 5.0 | 6.0 | 0.00 | 0.00 | 0.00 | 42 | 1008.9 |
| 20260508045417 | 54 | 315 | 6.0 | 6.0 | 0.00 | 0.00 | 0.00 | 43 | 1008.9 |
| 20260508045212 | 55 | 315 | 5.0 | 5.0 | 0.00 | 0.00 | 0.00 | 43 | 1009.0 |
| 20260508044803 | 55 | 270 | 1.0 | 1.0 | 0.00 | 0.00 | 0.00 | 43 | 1009.0 |
| 20260508044604 | 55 | 315 | 1.0 | 2.0 | 0.00 | 0.00 | 0.00 | 43 | 1009.0 |
| 20260508044400 | 55 | 270 | 1.0 | 2.0 | 0.00 | 0.00 | 0.00 | 43 | 1009.0 |
| 20260508043753 | 55 | 337 | 0.0 | 3.0 | 0.00 | 0.00 | 0.00 | 42 | 1008.8 |
| 20260508043550 | 55 | 0 | 2.0 | 3.0 | 0.00 | 0.00 | 0.00 | 43 | 1008.8 |
| 20260508043348 | 55 | 315 | 1.0 | 2.0 | 0.00 | 0.00 | 0.00 | 43 | 1008.9 |
| 20260508042742 | 55 | 315 | 0.0 | 6.0 | 0.00 | 0.00 | 0.00 | 42 | 1008.8 |
| 20260508042539 | 55 | 315 | 0.0 | 6.0 | 0.00 | 0.00 | 0.00 | 42 | 1008.7 |
| 20260508042135 | 55 | 337 | 4.0 | 6.0 | 0.00 | 0.00 | 0.00 | 42 | 1008.7 |
| 20260508041934 | 55 | 315 | 6.0 | 6.0 | 0.00 | 0.00 | 0.00 | 42 | 1008.7 |
| 20260508041732 | 55 | 0 | 4.0 | 6.0 | 0.00 | 0.00 | 0.00 | 42 | 1008.6 |